TIANWANG 1B (TW-1B) (40927 NORAD) Tracking and Keplerian Element Data

This shows tracking and keplerian element data for the satellite.

Feedback or suggestion? Click here.




ElementValue
Catalog40927
NameTIANWANG 1B (TW-1B)
Epoch Orbit13450
Epoch Day47.12084098
Epoch Year2018
RAAN89.9896
Inclination97.2092
Eccentricity0.0011227
Argument of Perigee22.4136
Mean Anonmoly39.5831
Mean Motion15.45851928
Decay Rate5.974E-05
L11 40927U 15051C 18047.12084098 .00005974 00000-0 12467-3 0 9994
L22 40927 97.2092 89.9896 0011227 22.4136 39.5831 15.45851928134503



Live tracking and technical data element details for TIANWANG 1B (TW-1B) (NORAD 40927). TIANWANG 1B (TW-1B) can be tracked NOW for your location showing map with azimuth and elevation plus other details from your city location.







IsCatalogInMostPopularTable: catalog: 40927, numindb: 460
Update: records affected: 1



GetName: 40927 TIANWANG 1B (TW-1B)

Hit Count: updated at: Mon, 28 Nov 2022 04:41:03 GMT